Probability
0 0 0 0 0 0 0 0 0 0 0 0 0 0 0 0 0 0 0 0 0 0 0 0 0 0 0 0 0 0 0 0 0 0 0 0 0 0 0 0 0 0 0 0
0 0 0 0 0 0 0 0 0 0 0 0 0 0 0 0 0 0 0 0 0 0 0 0 0 0 0 0 0 0 0 0 0 0 0 0 0 0 0 0 0 0 0 0
0 0 0 0 0 0 0 0 0 0 0 0 0 0 0 0 0 0 0 0 0 0 0 0 0 0 0 0 0 0 0 0 0 0 0 0 0 0 0 0 0 0 0 0
0 0 0 0 0 0 0 0 0 0 0 0 0 0 0 0 0 0 0 0 0 0 0 0 0 0 0 0 0 0 0 0 0 0 0 0 0 0 0 0 0 0 0 0
0 0 0 0 0 0 0 0 0 0 0 0 0 0 0 0 0 0 0 0 0 0 0 0 0 0 0 0 0 0 0 0 0 0 0 0 0 0 0 0 0 0 0 0
0 0 0 0 0 0 0 0 0 0 0 0 0 0 0 0 0 0 0 0 0 0 0 0 0 0 0 0 0 0 0 0 0 0 0 0 0 0 0 0 0 0 0 0
0 0 0 0 0 0 0 0 0 0 0 0 0 0 0 0 0 0 0 0 0 0 0 0 0 0 0 0 0 0 0 0 0 0 0 0 0 0 0 0 0 0 0 0
0 0 0 0 0 0 0 0 0 0 0 0 0 0 0 0 0 0 0 0 0 0 0 0 0 0 0 0 0 0 0 0 0 0 0 0 0 0 0 0 0 0 0 0
0 0 0 0 0 0 0 0 0 0 0 0 0 0 0 0 0 0 0 0 0 0 0 0 0 0 0 0 0 0 0 0 0 0 0 0 0 0 0 0 0 0 0 0
0 0 0 0 0 0 0 0 0 0 0 0 0 0 0 0 0 0 0 0 0 0 0 0 0 0 0 0 0 0 0 0 0 0 0 0 0 0 0 0 0 0 0 0
0 0 0 0 0 0 0 0 0 0 0 0 0 0 0 0 0 0 0 0 0 0 0 0 0 0 0 0 0 0 0 0 0 0 0 0 0 0 0 0 0 0 0 0
0 0 0 0 0 0 0 0 0 0 0 0 0 0 0 0 0 0 0 0 0 0 0 0 0 0 0 0 0 0 0 0 0 0 0 0 0 0 0 0 0 0 0 0
0 0 0 0 0 0 0 0 0 0 0 0 0 0 0 0 0 0 0 0 0 0 0 0 0 0 0 0 0 0 0 0 0 0 0 0 0 0 0 0 0 0 0 0
0 0 0 0 0 0 0 0 0 0 0 0 0 0 0 0 0 0 0 0 0 0 0 0 0 0 0 0 0 0 0 0 0 0 0 0 0 0 0 0 0 0 0 0
0 0 0 0 0 0 0 0 0 0 0 0 0 0 0 0 0 0 0 0 0 0 0 0 0 0 0 0 0 0 0 0 0 0 0 0 0 0 0 0 0 0 0 0
0 0 0 0 0 0 0 0 0 0 0 0 0 0 0 0 0 0 0 0 0 0 0 0 0 0 0 0 0 0 0 0 0 0 0 0 0 0 0 0 0 0 0 0
0 0 0 0 0 0 0 0 0 0 0 0 0 0 0 0 0 0 0 0 0 0 0 0 0 0 0 0 0 0 0 0 0 0 0 0 0 0 0 0 0 0 0 0
0 0 0 0 0 0 0 0 0 0 0 0 0 0 0 0 0 0 0 0 0 0 0 0 0 0 0 0 0 0 0 0 0 0 0 0 0 0 0 0 0 0 0 0
0 0 0 0 0 0 0 0 0 0 0 0 0 0 0 0 0 0 0 0 0 0 0 0 0 0 0 0 0 0 0 0 0 0 0 0 0 0 0 0 0 0 0 0
0 0 0 0 0 0 0 0 0 0 0 0 0 0 0 0 0 0 0 0 0 0 0 0 0 0 0 0 0 0 0 0 0 0 0 0 0 0 0 0 0 0 0 0
0 0 0 0 0 0 0 0 0 0 0 0 0 0 0 0 0 0 0 0 0 0 0 0 0 0 0 0 0 0 0 0 0 0 0 0 0 0 0 0 0 0 0 0
0 0 0 0 0 0 0 0 0 0 0 0 0 0 0 0 0 0 0 0 0 0 0 0 0 0 0 0 0 0 0 0 0 0 0 0 0 0 0 0 0 0 0 0
0 0 0 0 0 0 0 0 0 0 0 0 0 0 0 0 0 0 0 0 0 0 0 0 0 0 0 0 0 0 0 0 0 0 0 0 0 0 0 0 0 0 0 0
0 0 0 0 0 0 0 0 0 0 0 0 0 0 0 0 0 0 0 0 0 0 0 0 0 0 0 0 0 0 0 0 0 0 0 0 0 0 0 0 0 0 0 0
0 0 0 0 0 0 0 0 0 0 0 0 0 0 0 0 0 0 0 0 0 0 0 0 0 0 0 0 0 0 0 0 0 0 0 0 0 0 0 0 0 0 0 0
0 0 0 0 0 0 0 0 0 0 0 0 0 0 0 0 0 0 0 0 0 0 0 0 0 0 0 0 0 0 0 0 0 0 0 0 0 0 0 0 0 0 0 0
0 0 0 0 0 0 0 0 0 0 0 0 0 0 0 0 0 0 0 0 0 0 0 0 0 0 0 0 0 0 0 0 0 0 0 0 0 0 0 0 0 0 0 0
Wind_Speed
5 2 3 5 6 8 10 10 11 10 10 10 8 7 6 5 4 4 2 0 1 2 3 4 4 5 5 5 6 5 6 7 8 8 8 8 9 9 9 9 10 10 11 12
2 1 2 5 10 11 11 9 9 8 10 5 3 4 5 5 5 4 2 2 3 3 4 4 4 5 6 6 7 6 7 8 8 8 9 9 10 10 10 11 11 10 11 12
3 1 3 9 11 10 7 7 8 9 8 3 3 5 6 6 5 4 3 3 4 4 4 4 5 5 6 7 7 7 8 9 9 9 10 10 11 11 12 12 11 11 11 12
2 2 8 9 1 5 5 5 7 5 3 5 5 3 2 4 5 4 3 3 4 4 4 4 4 5 6 7 7 8 9 9 10 9 11 11 11 12 12 11 11 12 12 13
4 4 9 9 4 6 6 6 5 6 5 4 3 3 3 2 3 3 2 3 3 4 4 4 6 6 7 8 8 8 9 10 10 10 11 12 13 13 12 12 13 12 12 13
5 4 8 8 2 4 4 4 4 6 7 5 4 1 3 1 2 2 2 2 3 4 4 5 7 6 7 9 9 10 10 10 10 10 11 13 14 14 12 11 13 13 13 12
6 6 11 7 3 4 3 7 5 6 6 6 6 5 3 1 1 2 2 3 4 5 5 7 7 6 8 9 10 11 10 10 10 10 11 13 13 12 12 13 13 13 15 13
6 6 12 3 6 7 6 3 5 5 5 5 5 3 1 2 2 3 4 4 4 5 7 8 7 7 9 11 11 10 10 11 11 11 10 11 12 13 12 12 14 14 14 14
10 9 3 2 4 3 5 5 5 4 4 3 3 2 2 2 3 4 5 5 5 6 8 9 8 7 10 12 11 11 11 11 11 12 10 9 11 13 12 10 11 12 12 13
4 6 4 2 2 2 3 4 4 3 2 2 2 2 2 3 4 4 5 5 5 6 8 10 9 9 10 11 11 11 12 12 11 12 12 10 8 9 10 11 11 12 13 13
5 4 1 2 4 4 3 3 3 2 2 2 2 2 3 3 5 5 6 5 5 7 9 11 11 11 10 10 10 11 12 12 11 10 11 12 10 8 12 10 13 16 13 12
7 5 6 5 4 5 4 3 2 2 1 1 2 3 3 5 5 6 6 6 7 9 10 11 11 12 11 9 9 10 11 11 9 9 10 10 11 12 16 19 25 26 26 23
3 1 3 2 3 3 3 2 2 2 2 2 2 3 4 4 5 6 7 8 9 10 11 12 12 13 12 10 9 9 11 12 10 9 10 11 11 13 14 16 21 24 24 25
2 3 3 2 3 3 3 2 2 1 1 2 3 3 4 5 6 8 9 10 10 10 12 12 13 13 12 10 9 9 10 13 13 10 10 11 11 12 13 14 15 12 16 22
1 2 3 3 4 3 2 2 2 0 2 3 3 4 5 7 8 10 10 10 10 11 12 12 13 14 11 9 9 10 9 8 9 9 9 10 11 12 12 13 13 13 12 14
2 3 4 4 3 2 2 2 1 2 3 4 5 7 7 8 9 10 11 10 10 12 12 12 13 13 10 9 10 9 8 16 16 11 10 11 11 11 12 12 12 12 12 12
4 3 3 2 2 1 1 2 3 4 5 6 8 8 8 9 10 11 11 10 10 12 12 12 14 13 10 10 10 9 8 11 18 13 10 11 11 11 12 12 12 12 11 14
3 3 3 2 2 1 2 3 4 5 6 8 8 8 9 10 12 13 13 11 11 11 11 12 12 11 10 9 8 8 8 9 9 10 10 10 12 11 11 12 12 13 12 13
4 3 2 1 1 2 3 5 6 6 7 8 8 9 10 11 11 12 12 11 12 14 12 9 15 12 10 11 13 7 8 10 10 10 10 15 14 10 11 12 12 12 12 11
3 2 1 1 2 3 5 6 7 7 8 8 9 10 11 12 11 11 11 11 10 10 11 12 11 9 9 10 14 8 9 9 10 11 11 10 11 11 11 11 11 12 11 10
2 2 3 4 5 5 6 7 7 9 9 8 9 11 13 13 11 10 10 12 11 9 10 16 10 7 8 11 15 7 7 8 9 10 10 11 11 12 12 11 11 11 10 10
3 4 5 6 6 7 7 7 8 9 10 10 10 11 12 13 12 10 10 10 11 14 11 7 7 11 15 17 7 6 7 8 9 9 10 10 11 12 11 11 11 10 10 9
5 5 6 7 7 8 9 9 9 9 10 11 11 11 12 12 9 10 12 8 7 14 11 7 13 21 23 12 5 6 8 9 10 10 10 10 11 11 11 11 10 10 9 8
6 7 7 7 7 7 10 11 9 8 9 11 11 11 11 10 9 7 8 14 18 19 10 13 21 22 21 7 6 7 8 9 9 10 10 10 10 10 10 10 10 9 9 9
7 7 8 8 8 8 9 10 9 9 9 8 10 10 8 8 9 10 9 10 15 17 9 13 20 21 12 7 7 8 8 9 11 11 9 10 10 10 10 10 9 9 8 7
7 7 7 8 7 8 7 7 8 8 8 9 9 7 7 7 8 9 8 9 11 16 11 8 9 12 8 8 8 9 8 10 11 10 10 11 11 11 10 10 11 8 7 6
7 7 6 7 7 6 6 7 8 9 8 10 11 9 8 8 8 8 9 9 8 8 8 8 7 7 8 8 8 8 8 8 9 9 9 9 9 9 10 10 9 7 6 5
Wind_Direction
237 217 186 216 212 195 201 205 216 233 229 238 232 218 198 179 162 152 153 328 320 315 311 317 322 320 317 312 312 313 311 306 298 296 294 293 292 290 289 286 285 283 284 284
264 184 221 257 244 227 229 229 237 259 266 244 217 152 158 172 172 180 207 268 298 307 311 312 311 308 309 307 306 307 303 297 295 296 297 296 295 294 292 290 287 285 284 286
246 304 353 270 239 217 214 210 200 227 242 168 147 163 179 190 192 196 228 273 290 295 293 294 293 294 296 294 299 301 297 295 295 295 296 295 296 297 294 292 288 287 284 284
173 134 237 244 199 180 197 226 211 211 187 164 168 184 211 193 186 207 247 274 285 287 288 288 286 290 289 291 295 295 294 293 293 294 295 296 296 294 293 290 290 289 290 289
153 221 273 287 241 182 188 248 205 176 166 152 107 41 324 215 181 199 233 255 261 265 271 281 287 288 294 296 296 295 294 293 293 294 296 298 298 297 296 296 295 291 290 291
152 195 244 250 191 160 120 258 203 161 161 155 125 98 268 229 198 254 277 273 273 282 285 286 285 291 295 294 296 294 292 292 293 292 293 296 297 298 297 295 295 297 295 292
184 219 258 251 180 131 184 246 170 162 166 165 181 201 221 300 292 285 293 289 289 291 285 280 285 293 290 291 289 287 289 292 293 290 289 292 294 294 296 297 296 296 295 293
167 201 249 205 145 183 208 135 140 156 171 185 211 244 282 302 302 312 309 301 297 290 285 286 287 287 287 288 287 290 293 294 295 293 291 297 296 298 297 296 298 300 299 298
193 211 256 187 194 186 142 141 158 167 183 185 209 249 290 302 303 298 290 285 281 278 285 289 285 278 283 289 294 297 298 297 297 297 292 289 291 297 300 298 297 300 300 298
237 260 244 216 154 141 140 142 153 153 156 161 198 244 276 283 284 286 283 282 281 287 288 291 290 284 278 287 294 296 297 299 300 301 301 297 288 289 294 298 298 298 298 298
244 263 200 224 198 166 135 117 112 103 122 165 196 241 254 266 275 275 279 279 278 279 283 287 291 289 285 286 292 294 295 297 299 297 298 301 296 289 294 286 289 297 298 298
220 217 190 216 198 168 154 156 155 154 170 193 199 233 257 263 266 270 275 278 283 283 282 287 290 290 288 285 284 288 296 298 298 299 299 299 302 301 296 298 301 302 301 300
220 189 171 154 137 142 149 157 158 173 193 217 240 238 249 262 269 273 277 281 280 280 283 287 290 289 289 287 283 281 285 294 297 297 299 301 302 304 307 307 304 304 303 305
188 128 121 133 139 135 131 130 132 142 199 230 244 255 258 264 273 278 278 277 277 281 284 285 287 287 287 286 283 281 283 291 296 294 295 296 298 300 302 305 308 306 305 306
80 132 147 129 116 112 116 120 116 290 287 284 264 267 270 273 276 278 279 281 282 281 281 283 286 287 288 286 284 285 287 289 289 289 291 295 298 299 299 299 299 301 303 305
87 89 106 110 118 124 130 140 181 272 277 277 280 278 275 272 274 278 280 279 278 282 284 286 287 288 289 287 286 287 284 294 303 301 298 299 299 299 299 299 299 300 302 304
144 140 137 136 147 164 199 224 241 259 270 275 275 279 284 285 285 285 283 278 272 275 279 281 284 288 287 283 282 287 288 294 301 302 295 296 298 298 298 299 300 300 299 300
153 149 149 156 177 225 273 274 267 269 268 270 279 283 283 282 284 287 289 290 288 285 279 274 277 283 280 280 282 283 286 290 291 293 296 298 299 298 299 299 299 299 301 304
99 102 100 109 208 240 260 272 275 274 276 280 282 280 278 278 279 282 287 289 290 293 290 278 292 296 286 286 294 285 286 289 293 296 297 301 304 299 298 297 298 300 301 304
64 58 32 328 299 267 271 276 279 280 279 279 281 283 285 284 283 284 287 285 277 273 280 289 291 281 279 282 295 285 283 289 297 301 300 299 299 299 298 298 299 300 301 302
351 331 317 303 294 284 276 277 280 282 284 282 280 282 285 287 287 285 286 290 286 277 281 292 294 287 288 290 296 288 288 294 299 300 299 299 299 299 298 298 300 301 303 303
299 294 295 293 291 290 286 281 278 280 284 284 281 280 284 288 290 285 271 271 283 293 297 284 281 291 299 303 295 289 292 296 298 298 297 297 298 299 298 299 300 302 302 301
283 282 284 284 283 284 287 285 280 279 279 281 282 283 282 283 285 288 293 286 283 295 299 285 294 302 307 309 294 292 294 296 297 297 296 296 295 296 298 299 300 301 301 300
281 280 279 280 285 287 286 285 281 277 274 276 275 273 276 284 285 271 271 290 298 302 297 294 303 306 311 306 292 290 291 293 294 294 293 294 295 296 297 298 299 298 298 299
275 277 279 282 282 277 276 283 287 284 281 279 277 273 269 266 275 286 287 288 294 302 296 298 303 308 308 292 289 288 289 290 295 300 300 300 298 298 297 297 296 298 298 297
269 270 269 264 263 270 275 279 282 285 287 290 290 284 278 276 276 282 286 285 284 293 296 292 291 297 292 288 288 288 290 296 300 300 295 296 297 298 297 297 297 297 297 297
268 268 271 274 269 261 262 269 276 282 284 287 291 291 288 287 287 288 288 289 289 288 288 288 287 287 288 288 288 289 291 293 294 295 296 297 297 296 298 298 298 297 297 295